Time,TemperatureF,DewpointF,PressureIn,WindDirection,WindDirectionDegrees,WindSpeedMPH,WindSpeedGustMPH,Humidity,HourlyPrecipIn,Conditions,Clouds,dailyrainin,SolarRadiationWatts/m^2,SoftwareType,DateUTC
2013-01-19 00:04:00,29.0,21.0,-100.00,SSW,194,4.0,6.0,71,0.00,,,0.13,0.000000,,2013-01-19 05:04:00,
2013-01-19 00:33:00,28.0,20.0,-100.00,South,175,3.0,6.0,73,0.00,,,0.13,0.000000,,2013-01-19 05:33:00,
2013-01-19 00:43:00,28.0,20.0,-100.00,South,175,3.0,6.0,73,0.00,,,0.13,0.000000,,2013-01-19 05:43:00,
2013-01-19 00:53:00,28.0,20.0,-100.00,South,175,3.0,6.0,73,0.00,,,0.13,0.000000,,2013-01-19 05:53:00,
2013-01-19 01:03:00,28.0,20.0,-100.00,South,175,3.0,6.0,73,0.00,,,0.13,0.000000,,2013-01-19 06:03:00,
2013-01-19 01:33:00,28.0,21.0,-100.00,South,190,4.0,6.0,74,0.00,,,0.13,0.000000,,2013-01-19 06:33:00,
2013-01-19 01:43:00,28.0,21.0,-100.00,South,190,4.0,6.0,74,0.00,,,0.13,0.000000,,2013-01-19 06:43:00,
2013-01-19 01:53:00,28.0,21.0,-100.00,South,190,4.0,6.0,74,0.00,,,0.13,0.000000,,2013-01-19 06:53:00,
2013-01-19 02:02:00,28.0,21.0,-100.00,South,190,4.0,6.0,74,0.00,,,0.13,0.000000,,2013-01-19 07:02:00,
2013-01-19 02:33:00,28.0,21.0,-100.00,South,186,5.0,6.0,76,0.00,,,0.13,0.000000,,2013-01-19 07:33:00,
2013-01-19 02:43:00,28.0,21.0,-100.00,South,186,5.0,6.0,76,0.00,,,0.13,0.000000,,2013-01-19 07:43:00,
2013-01-19 02:53:00,28.0,21.0,-100.00,South,186,5.0,6.0,76,0.00,,,0.13,0.000000,,2013-01-19 07:53:00,
2013-01-19 03:02:00,28.0,21.0,-100.00,South,186,5.0,6.0,76,0.00,,,0.13,0.000000,,2013-01-19 08:02:00,
2013-01-19 03:33:00,28.0,22.0,-100.00,SSW,196,5.0,7.0,78,0.00,,,0.13,0.000000,,2013-01-19 08:33:00,
2013-01-19 03:43:00,28.0,22.0,-100.00,SSW,196,5.0,7.0,78,0.00,,,0.13,0.000000,,2013-01-19 08:43:00,
2013-01-19 03:53:00,28.0,22.0,-100.00,SSW,196,5.0,7.0,78,0.00,,,0.13,0.000000,,2013-01-19 08:53:00,
2013-01-19 04:02:00,28.0,22.0,-100.00,SSW,196,5.0,7.0,78,0.00,,,0.13,0.000000,,2013-01-19 09:02:00,
2013-01-19 04:33:00,27.0,22.0,-100.00,South,187,5.0,8.0,80,0.00,,,0.13,0.000000,,2013-01-19 09:33:00,
2013-01-19 04:43:00,27.0,22.0,-100.00,South,187,5.0,8.0,80,0.00,,,0.13,0.000000,,2013-01-19 09:43:00,
2013-01-19 04:53:00,27.0,22.0,-100.00,South,187,5.0,8.0,80,0.00,,,0.13,0.000000,,2013-01-19 09:53:00,
2013-01-19 05:02:00,27.0,22.0,-100.00,South,187,5.0,8.0,80,0.00,,,0.13,0.000000,,2013-01-19 10:02:00,
2013-01-19 05:33:00,25.0,20.0,-100.00,South,177,3.0,6.0,81,0.00,,,0.13,0.000000,,2013-01-19 10:33:00,
2013-01-19 05:43:00,25.0,20.0,-100.00,South,177,3.0,6.0,81,0.00,,,0.13,0.000000,,2013-01-19 10:43:00,
2013-01-19 05:53:00,25.0,20.0,-100.00,South,177,3.0,6.0,81,0.00,,,0.13,0.000000,,2013-01-19 10:53:00,
2013-01-19 06:03:00,25.0,20.0,-100.00,South,177,3.0,6.0,81,0.00,,,0.13,0.000000,,2013-01-19 11:03:00,
2013-01-19 07:48:00,27.0,17.0,-100.00,NNE,15,1.0,5.0,66,0.00,,,0.13,0.000000,,2013-01-19 12:48:00,
2013-01-19 07:53:00,27.0,17.0,-100.00,NNE,15,1.0,5.0,66,0.00,,,0.13,0.000000,,2013-01-19 12:53:00,
2013-01-19 08:03:00,27.0,17.0,-100.00,NNE,15,1.0,5.0,66,0.00,,,0.13,0.000000,,2013-01-19 13:03:00,
2013-01-19 08:34:00,31.0,13.0,-100.00,WSW,242,1.0,4.0,46,0.00,,,0.13,4.000000,,2013-01-19 13:34:00,
2013-01-19 08:43:00,31.0,13.0,-100.00,WSW,242,1.0,4.0,46,0.00,,,0.13,4.000000,,2013-01-19 13:43:00,
2013-01-19 08:54:00,31.0,13.0,-100.00,WSW,242,1.0,4.0,46,0.00,,,0.13,4.000000,,2013-01-19 13:54:00,
2013-01-19 09:03:00,31.0,13.0,-100.00,WSW,242,1.0,4.0,46,0.00,,,0.13,4.000000,,2013-01-19 14:03:00,
2013-01-19 09:34:00,39.0,12.0,-100.00,SSE,163,1.0,5.0,32,0.00,,,0.13,120.000000,,2013-01-19 14:34:00,
2013-01-19 09:43:00,39.0,12.0,-100.00,SSE,163,1.0,5.0,32,0.00,,,0.13,120.000000,,2013-01-19 14:43:00,
2013-01-19 09:54:00,39.0,12.0,-100.00,SSE,163,1.0,5.0,32,0.00,,,0.13,120.000000,,2013-01-19 14:54:00,
2013-01-19 10:03:00,39.0,12.0,-100.00,SSE,163,1.0,5.0,32,0.00,,,0.13,120.000000,,2013-01-19 15:03:00,
2013-01-19 10:34:00,42.0,11.0,-100.00,SSW,196,4.0,7.0,28,0.00,,,0.08,309.000000,,2013-01-19 15:34:00,
2013-01-19 10:43:00,42.0,11.0,-100.00,SSW,196,4.0,7.0,28,0.00,,,0.08,309.000000,,2013-01-19 15:43:00,
2013-01-19 10:53:00,42.0,11.0,-100.00,SSW,196,4.0,7.0,28,0.00,,,0.08,309.000000,,2013-01-19 15:53:00,
2013-01-19 11:03:00,42.0,11.0,-100.00,SSW,196,4.0,7.0,28,0.00,,,0.08,309.000000,,2013-01-19 16:03:00,
2013-01-19 11:33:00,45.0,6.0,-100.00,SW,217,3.0,7.0,20,0.00,,,0.02,481.000000,,2013-01-19 16:33:00,
2013-01-19 11:43:00,45.0,6.0,-100.00,SW,217,3.0,7.0,20,0.00,,,0.02,481.000000,,2013-01-19 16:43:00,
2013-01-19 11:54:00,45.0,6.0,-100.00,SW,217,3.0,7.0,20,0.00,,,0.02,481.000000,,2013-01-19 16:54:00,
2013-01-19 12:03:00,45.0,6.0,-100.00,SW,217,3.0,7.0,20,0.00,,,0.02,481.000000,,2013-01-19 17:03:00,
2013-01-19 12:05:00,45.0,-1.0,-100.00,SW,222,6.0,11.0,14,0.00,,,-99.99,605.000000,,2013-01-19 17:05:00,
2013-01-19 12:38:00,45.0,-1.0,-100.00,SW,222,6.0,11.0,14,0.00,,,-99.99,605.000000,,2013-01-19 17:38:00,
2013-01-19 12:50:00,45.0,-1.0,-100.00,SW,222,6.0,11.0,14,0.00,,,-99.99,605.000000,,2013-01-19 17:50:00,
2013-01-19 12:55:00,45.0,-1.0,-100.00,SW,222,6.0,11.0,14,0.00,,,-99.99,605.000000,,2013-01-19 17:55:00,
2013-01-19 13:05:00,47.0,0.0,-100.00,SW,227,6.0,11.0,14,0.00,,,0.00,664.000000,,2013-01-19 18:05:00,
2013-01-19 13:38:00,47.0,0.0,-100.00,SW,227,6.0,11.0,14,0.00,,,0.00,664.000000,,2013-01-19 18:38:00,
2013-01-19 13:48:00,47.0,0.0,-100.00,SW,227,6.0,11.0,14,0.00,,,0.00,664.000000,,2013-01-19 18:48:00,
2013-01-19 14:03:00,47.0,0.0,-100.00,SW,227,6.0,11.0,14,0.00,,,0.00,664.000000,,2013-01-19 19:03:00,
2013-01-19 14:05:00,50.0,14.0,-100.00,SW,224,4.0,11.0,23,0.00,,,0.00,653.000000,,2013-01-19 19:05:00,
2013-01-19 14:40:00,50.0,14.0,-100.00,SW,224,4.0,11.0,23,0.00,,,0.00,653.000000,,2013-01-19 19:40:00,
2013-01-19 14:50:00,50.0,14.0,-100.00,SW,224,4.0,11.0,23,0.00,,,0.00,653.000000,,2013-01-19 19:50:00,
2013-01-19 14:59:00,50.0,14.0,-100.00,SW,224,4.0,11.0,23,0.00,,,0.00,653.000000,,2013-01-19 19:59:00,
2013-01-19 15:05:00,49.0,17.0,-100.00,SW,214,4.0,8.0,28,0.00,,,0.00,553.000000,,2013-01-19 20:05:00,
2013-01-19 15:50:00,49.0,17.0,-100.00,SW,214,4.0,8.0,28,0.00,,,0.00,553.000000,,2013-01-19 20:50:00,
2013-01-19 15:59:00,49.0,17.0,-100.00,SW,214,4.0,8.0,28,0.00,,,0.00,553.000000,,2013-01-19 20:59:00,
2013-01-19 16:05:00,47.0,21.0,-100.00,SSW,197,5.0,8.0,35,0.00,,,0.00,419.000000,,2013-01-19 21:05:00,
2013-01-19 16:48:00,47.0,21.0,-100.00,SSW,197,5.0,8.0,35,0.00,,,0.00,419.000000,,2013-01-19 21:48:00,
2013-01-19 16:54:00,47.0,21.0,-100.00,SSW,197,5.0,8.0,35,0.00,,,0.00,419.000000,,2013-01-19 21:54:00,
2013-01-19 17:02:00,47.0,21.0,-100.00,SSW,197,5.0,8.0,35,0.00,,,0.00,419.000000,,2013-01-19 22:02:00,
2013-01-19 17:05:00,42.0,22.0,-100.00,SSW,206,4.0,7.0,45,0.00,,,-99.99,124.000000,,2013-01-19 22:05:00,
2013-01-19 17:36:00,42.0,22.0,-100.00,SSW,206,4.0,7.0,45,0.00,,,-99.99,124.000000,,2013-01-19 22:36:00,
2013-01-19 17:49:00,42.0,22.0,-100.00,SSW,206,4.0,7.0,45,0.00,,,-99.99,124.000000,,2013-01-19 22:49:00,
2013-01-19 17:59:00,42.0,22.0,-100.00,SSW,206,4.0,7.0,45,0.00,,,-99.99,124.000000,,2013-01-19 22:59:00,
2013-01-19 18:05:00,36.0,21.0,-100.00,SSW,203,5.0,7.0,54,0.00,,,0.00,15.000000,,2013-01-19 23:05:00,
2013-01-19 18:35:00,36.0,21.0,-100.00,SSW,203,5.0,7.0,54,0.00,,,0.00,15.000000,,2013-01-19 23:35:00,
2013-01-19 19:38:00,34.0,20.0,-100.00,SW,220,1.0,6.0,57,0.00,,,0.00,0.000000,,2013-01-20 00:38:00,
2013-01-19 19:48:00,34.0,20.0,-100.00,SW,220,1.0,6.0,57,0.00,,,0.00,0.000000,,2013-01-20 00:48:00,
2013-01-19 19:58:00,34.0,20.0,-100.00,SW,220,1.0,6.0,57,0.00,,,0.00,0.000000,,2013-01-20 00:58:00,
2013-01-19 20:04:00,34.0,20.0,-100.00,SW,220,1.0,6.0,57,0.00,,,0.00,0.000000,,2013-01-20 01:04:00,
2013-01-19 20:05:00,37.0,19.0,-100.00,West,262,2.0,6.0,48,0.00,,,0.00,0.000000,,2013-01-20 01:05:00,
2013-01-19 20:39:00,37.0,19.0,-100.00,West,262,2.0,6.0,48,0.00,,,0.00,0.000000,,2013-01-20 01:39:00,
2013-01-19 20:52:00,37.0,19.0,-100.00,West,262,2.0,6.0,48,0.00,,,0.00,0.000000,,2013-01-20 01:52:00,
2013-01-19 21:05:00,34.0,19.0,-100.00,North,354,3.0,5.0,53,0.00,,,0.00,0.000000,,2013-01-20 02:05:00,
2013-01-19 21:38:00,34.0,19.0,-100.00,North,354,3.0,5.0,53,0.00,,,0.00,0.000000,,2013-01-20 02:38:00,
2013-01-19 21:45:00,34.0,19.0,-100.00,North,354,3.0,5.0,53,0.00,,,0.00,0.000000,,2013-01-20 02:45:00,
2013-01-19 21:59:00,34.0,19.0,-100.00,North,354,3.0,5.0,53,0.00,,,0.00,0.000000,,2013-01-20 02:59:00,
2013-01-19 22:05:00,34.0,13.0,-100.00,NNW,343,5.0,6.0,41,0.00,,,0.00,0.000000,,2013-01-20 03:05:00,
2013-01-19 22:39:00,34.0,13.0,-100.00,NNW,343,5.0,6.0,41,0.00,,,0.00,0.000000,,2013-01-20 03:39:00,
2013-01-19 22:47:00,34.0,13.0,-100.00,NNW,343,5.0,6.0,41,0.00,,,0.00,0.000000,,2013-01-20 03:47:00,
2013-01-19 22:58:00,34.0,13.0,-100.00,NNW,343,5.0,6.0,41,0.00,,,0.00,0.000000,,2013-01-20 03:58:00,
2013-01-19 23:38:00,35.0,9.0,-100.00,NNW,340,5.0,10.0,33,0.00,,,0.00,0.000000,,2013-01-20 04:38:00,
2013-01-19 23:45:00,35.0,9.0,-100.00,NNW,340,5.0,10.0,33,0.00,,,0.00,0.000000,,2013-01-20 04:45:00,
2013-01-19 23:59:00,35.0,9.0,-100.00,NNW,340,5.0,10.0,33,0.00,,,0.00,0.000000,,2013-01-20 04:59:00,